When you browse on this site, cookies collect data to enhance your experience and personalize the content and advertising you see.
Visit our Privacy Policy to learn more. By continuing to use the site, you agree to this use of cookies and data.
  • In Spain
  • List of Countries
  • For 7 days
  • Water Temperature
  • Satellite Maps
  • Weather Map
  • Weather Widgets
  • user-avatar
    Login

    Hourly Weather Sylhet

    Today, 18 November, Sunday

    Time Temperature Precipitation Wind Pressure Humidity
    00:00 +21°C° 0 mm 1 mps 759 mmHg 74%
    01:00 +21°C° 0 mm 1 mps 759 mmHg 75%
    02:00 +21°C° 0 mm 1 mps 759 mmHg 76%
    03:00 +21°C° 0 mm 1 mps 759 mmHg 77%
    04:00 +20°C° 0 mm 1 mps 759 mmHg 79%
    05:00 +20°C° 0 mm 1 mps 760 mmHg 80%
    06:00 +20°C° 0 mm 1 mps 760 mmHg 82%
    07:00 +22°C° 0 mm 1 mps 760 mmHg 76%
    08:00 +23°C° 0 mm 1 mps 761 mmHg 70%
    09:00 +25°C° 0 mm 2 mps 761 mmHg 63%
    10:00 +27°C° 0 mm 2 mps 760 mmHg 58%
    11:00 +28°C° 0 mm 1 mps 760 mmHg 53%
    12:00 +30°C° 0 mm 1 mps 760 mmHg 46%
    13:00 +30°C° 0 mm 1 mps 759 mmHg 44%
    14:00 +30°C° 0 mm 1 mps 759 mmHg 42%
    15:00 +30°C° 0 mm 1 mps 758 mmHg 40%
    16:00 +28°C° 0 mm 1 mps 758 mmHg 44%
    17:00 +26°C° 0 mm 1 mps 758 mmHg 49%
    18:00 +24°C° 0 mm 1 mps 759 mmHg 54%
    19:00 +23°C° 0 mm 1 mps 759 mmHg 55%
    20:00 +22°C° 0 mm 1 mps 760 mmHg 57%
    21:00 +22°C° 0 mm 1 mps 760 mmHg 59%
    22:00 +21°C° 0 mm 1 mps 760 mmHg 62%
    23:00 +21°C° 0 mm 1 mps 760 mmHg 64%

    Tomorrow, 19 November, Monday

    Time Temperature Precipitation Wind Pressure Humidity
    00:00 +20°C° 0 mm 1 mps 760 mmHg 67%
    01:00 +20°C° 0 mm 1 mps 760 mmHg 70%
    02:00 +19°C° 0 mm 1 mps 760 mmHg 73%
    03:00 +19°C° 0 mm 1 mps 760 mmHg 75%
    04:00 +18°C° 0 mm 1 mps 760 mmHg 78%
    05:00 +18°C° 0 mm 1 mps 760 mmHg 80%
    06:00 +18°C° 0 mm 1 mps 761 mmHg 82%
    07:00 +19°C° 0 mm 2 mps 761 mmHg 77%
    08:00 +21°C° 0 mm 2 mps 761 mmHg 71%
    09:00 +24°C° 0 mm 2 mps 762 mmHg 65%
    10:00 +26°C° 0 mm 2 mps 761 mmHg 57%
    11:00 +28°C° 0 mm 2 mps 761 mmHg 50%
    12:00 +29°C° 0 mm 1 mps 760 mmHg 42%
    13:00 +29°C° 0 mm 1 mps 760 mmHg 40%
    14:00 +30°C° 0 mm 1 mps 759 mmHg 38%
    15:00 +30°C° 0 mm 1 mps 758 mmHg 36%
    16:00 +28°C° 0 mm 1 mps 759 mmHg 41%
    17:00 +26°C° 0 mm 1 mps 759 mmHg 46%
    18:00 +24°C° 0 mm 1 mps 759 mmHg 51%
    19:00 +23°C° 0 mm 1 mps 759 mmHg 53%
    20:00 +22°C° 0 mm 1 mps 760 mmHg 54%
    21:00 +22°C° 0 mm 1 mps 760 mmHg 56%
    22:00 +21°C° 0 mm 1 mps 760 mmHg 58%
    23:00 +20°C° 0 mm 1 mps 760 mmHg 60%

    Day after tomorrow, 20 November, Tuesday

    Time Temperature Precipitation Wind Pressure Humidity
    00:00 +20°C° 0 mm 1 mps 760 mmHg 61%
    01:00 +19°C° 0 mm 1 mps 760 mmHg 64%
    02:00 +19°C° 0 mm 1 mps 760 mmHg 66%
    03:00 +18°C° 0 mm 1 mps 760 mmHg 68%
    04:00 +18°C° 0 mm 1 mps 760 mmHg 70%
    05:00 +18°C° 0 mm 1 mps 760 mmHg 71%
    06:00 +16°C° 0 mm 1 mps 760 mmHg 73%
    07:00 +18°C° 0 mm 2 mps 761 mmHg 68%
    08:00 +20°C° 0 mm 2 mps 761 mmHg 63%
    09:00 +23°C° 0 mm 2 mps 762 mmHg 58%
    10:00 +25°C° 0 mm 1 mps 761 mmHg 53%
    11:00 +27°C° 0 mm 1 mps 761 mmHg 48%
    12:00 +29°C° 0 mm 1 mps 760 mmHg 43%
    13:00 +29°C° 0 mm 1 mps 759 mmHg 42%
    14:00 +29°C° 0 mm 1 mps 759 mmHg 42%
    15:00 +29°C° 0 mm 1 mps 758 mmHg 41%
    16:00 +27°C° 0 mm 1 mps 758 mmHg 46%
    17:00 +25°C° 0 mm 1 mps 759 mmHg 51%
    18:00 +23°C° 0 mm 1 mps 759 mmHg 56%
    19:00 +23°C° 0 mm 1 mps 759 mmHg 58%
    20:00 +22°C° 0 mm 1 mps 760 mmHg 60%
    21:00 +21°C° 0 mm 1 mps 761 mmHg 62%
    22:00 +21°C° 0 mm 1 mps 761 mmHg 64%
    23:00 +20°C° 0 mm 1 mps 760 mmHg 66%

    21 November, Wednesday

    Time Temperature Precipitation Wind Pressure Humidity
    00:00 +20°C° 0 mm 1 mps 760 mmHg 68%
    01:00 +19°C° 0 mm 1 mps 760 mmHg 70%
    02:00 +19°C° 0 mm 1 mps 760 mmHg 72%
    03:00 +19°C° 0 mm 1 mps 760 mmHg 74%
    04:00 +18°C° 0 mm 1 mps 760 mmHg 76%
    05:00 +18°C° 0 mm 1 mps 760 mmHg 77%
    06:00 +18°C° 0 mm 1 mps 761 mmHg 78%
    07:00 +19°C° 0 mm 2 mps 761 mmHg 72%
    08:00 +21°C° 0 mm 2 mps 762 mmHg 66%
    09:00 +24°C° 0 mm 2 mps 762 mmHg 59%
    10:00 +25°C° 0 mm 2 mps 761 mmHg 53%
    11:00 +27°C° 0 mm 1 mps 761 mmHg 48%
    12:00 +29°C° 0 mm 1 mps 760 mmHg 42%
    13:00 +29°C° 0 mm 1 mps 759 mmHg 41%
    14:00 +29°C° 0 mm 1 mps 759 mmHg 40%
    15:00 +29°C° 0 mm 1 mps 758 mmHg 39%
    16:00 +27°C° 0 mm 1 mps 758 mmHg 44%
    17:00 +25°C° 0 mm 1 mps 758 mmHg 49%
    18:00 +23°C° 0 mm 1 mps 759 mmHg 54%
    19:00 +22°C° 0 mm 1 mps 759 mmHg 57%
    20:00 +22°C° 0 mm 1 mps 760 mmHg 59%
    21:00 +21°C° 0 mm 1 mps 761 mmHg 62%
    22:00 +21°C° 0 mm 1 mps 761 mmHg 64%
    23:00 +20°C° 0 mm 1 mps 760 mmHg 67%

    22 November, Thursday

    Time Temperature Precipitation Wind Pressure Humidity
    00:00 +20°C° 0 mm 1 mps 760 mmHg 69%
    01:00 +19°C° 0 mm 1 mps 760 mmHg 71%
    02:00 +19°C° 0 mm 1 mps 760 mmHg 73%
    03:00 +18°C° 0 mm 1 mps 760 mmHg 75%
    04:00 +18°C° 0 mm 1 mps 760 mmHg 77%
    05:00 +16°C° 0 mm 1 mps 760 mmHg 79%
    06:00 +16°C° 0 mm 1 mps 760 mmHg 81%
    07:00 +19°C° 0 mm 1 mps 761 mmHg 74%
    08:00 +20°C° 0 mm 2 mps 761 mmHg 67%
    09:00 +23°C° 0 mm 2 mps 762 mmHg 61%
    10:00 +25°C° 0 mm 2 mps 761 mmHg 54%
    11:00 +27°C° 0 mm 2 mps 760 mmHg 48%
    12:00 +29°C° 0 mm 2 mps 760 mmHg 42%
    13:00 +29°C° 0 mm 1 mps 759 mmHg 41%
    14:00 +29°C° 0 mm 1 mps 758 mmHg 40%
    15:00 +30°C° 0 mm 1 mps 758 mmHg 39%
    16:00 +28°C° 0 mm 1 mps 758 mmHg 45%
    17:00 +25°C° 0 mm 1 mps 759 mmHg 50%
    18:00 +23°C° 0 mm 1 mps 759 mmHg 56%
    19:00 +23°C° 0 mm 1 mps 759 mmHg 57%
    20:00 +22°C° 0 mm 1 mps 760 mmHg 59%
    21:00 +21°C° 0 mm 1 mps 760 mmHg 60%
    22:00 +21°C° 0 mm 1 mps 760 mmHg 62%
    23:00 +20°C° 0 mm 1 mps 760 mmHg 64%

    23 November, Friday

    Time Temperature Precipitation Wind Pressure Humidity
    00:00 +18°C° 0 mm 0 mps 760 mmHg 66%
    01:00 +17°C° 0 mm 0 mps 760 mmHg 68%
    02:00 +19°C° 0 mm 1 mps 760 mmHg 69%
    03:00 +19°C° 0 mm 1 mps 760 mmHg 71%
    04:00 +18°C° 0 mm 1 mps 760 mmHg 72%
    05:00 +18°C° 0 mm 1 mps 760 mmHg 74%
    06:00 +18°C° 0 mm 1 mps 760 mmHg 75%
    07:00 +20°C° 0 mm 1 mps 761 mmHg 70%
    08:00 +22°C° 0 mm 1 mps 761 mmHg 65%
    09:00 +24°C° 0 mm 1 mps 762 mmHg 60%
    10:00 +26°C° 0 mm 1 mps 761 mmHg 55%
    11:00 +28°C° 0 mm 1 mps 760 mmHg 50%
    12:00 +29°C° 0 mm 1 mps 760 mmHg 45%
    13:00 +30°C° 0 mm 1 mps 759 mmHg 44%
    14:00 +30°C° 0 mm 1 mps 758 mmHg 42%
    15:00 +30°C° 0 mm 1 mps 758 mmHg 40%
    16:00 +28°C° 0 mm 1 mps 758 mmHg 45%
    17:00 +26°C° 0 mm 1 mps 758 mmHg 51%
    18:00 +24°C° 0 mm 1 mps 759 mmHg 56%
    19:00 +23°C° 0 mm 1 mps 759 mmHg 58%
    20:00 +22°C° 0 mm 1 mps 760 mmHg 60%
    21:00 +22°C° 0 mm 1 mps 760 mmHg 61%
    22:00 +21°C° 0 mm 1 mps 760 mmHg 63%
    23:00 +21°C° 0 mm 1 mps 760 mmHg 65%
    Show more